Regional Weather Roundup
Issued by NWS

Home | Current Version | Previous Version | Text Only | Print | Product List | Glossary Off
Versions: 1 2 3 4 5 6 7 8 9 10 11 12 13 14 15 16 17 18 19 20 21 22 23 24 25 26 27 28

000
ASUS45 KBOI 300410
RWRID
WEATHER ROUNDUP FOR IDAHO
NATIONAL WEATHER SERVICE BOISE ID
1000 PM MDT WED OCT 29 2014

NOTE: "FAIR" INDICATES FEW OR NO CLOUDS BELOW 12000 FEET
WITH NO SIGNIFICANT WEATHER AND/OR OBSTRUCTIONS TO VISIBILITY

IDZ012-014-300500-
SOUTHWEST IDAHO


CITY           SKY/WX    TMP DP  RH WIND       PRES   REMARKS
BOISE          CLOUDY    53  41  63 CALM      30.18F
CALDWELL       CLOUDY    48  37  66 CALM      30.21S
MOUNTAIN HOME  PTCLDY    53  40  59 SW6       30.19S
$$

IDZ016-017-300500-
SOUTHCENTRAL IDAHO


CITY           SKY/WX    TMP DP  RH WIND       PRES   REMARKS
BURLEY         CLEAR     45  35  68 CALM      30.23R
JEROME         MOCLDY    49  36  61 SE5       30.23R
TWIN FALLS     CLEAR     47  36  65 S8        30.24R
$$

IDZ019>023-300500-
SOUTHEAST IDAHO


CITY           SKY/WX    TMP DP  RH WIND       PRES   REMARKS
IDAHO FALLS    MOCLDY    49  33  54 S8        30.25R
POCATELLO      CLOUDY    54  33  45 S10       30.25R
REXBURG        MOCLDY    39  29  67 CALM      30.25R
$$

IDZ006-010-011-018-031-032-300500-
CENTRAL IDAHO MOUNTAINS


CITY           SKY/WX    TMP DP  RH WIND       PRES   REMARKS
MCCALL         CLOUDY    40  36  86 NE3       30.22S
HAILEY         PTCLDY    46  25  42 NW7       30.27R
STANLEY          N/A     33  28  81 S3        30.30S
SALMON         PTCLDY    37  30  75 CALM      30.23R
CHALLIS        PTCLDY    41  30  65 CALM      30.25R
$$

IDZ002-004-006-007-026-300500-
NORTHERN IDAHO


CITY           SKY/WX    TMP DP  RH WIND       PRES   REMARKS
LEWISTON       MOCLDY    54  46  74 E3        30.16S
LOWELL           N/A     49  47  93 CALM      30.24R
COEUR D`ALENE  CLOUDY    46  45  93 NE8       30.19R VSB 1/2
MULLAN PASS    FOG       35  35 100 S3        30.23R VSB 1/4
$$



USA.gov is the U.S. government's official web portal to all federal, state and local government web resources and services.